Ames, IA

10:18 AM CDT on June 28, 2017 (GMT -0500)
Ames Municipal

Weather History for KAMW - February, 2014

Change the Weather History Date:

Tuesday, February 25, 2014

  Actual Average Record
Temperature  
Mean Temperature 6 °F 28 °F  
Max Temperature 11 °F 37 °F 57 °F (1998)
Min Temperature 1 °F 19 °F -7 °F (2003)
Degree Days  
Heating Degree Days 59 37  
Month to date heating degree days 1270 1023  
Since 1 July heating degree days 5696 5178  
Cooling Degree Days 0 0  
Month to date cooling degree days 0 0  
Year to date cooling degree days 0 0  
Moisture  
Dew Point -2 °F    
Average Humidity 72    
Maximum Humidity 86    
Minimum Humidity 57    
Precipitation  
Precipitation 0.01 in 0.04 in 0.37 in (2008)
Month to date precipitation 0.93 0.85  
Sea Level Pressure  
Sea Level Pressure 30.41 in    
Wind  
Wind Speed 14 mph (NNW)    
Max Wind Speed 25 mph    
Max Gust Speed 32 mph    
Visibility 10 miles    
Events      
T = Trace of Precipitation, MM = Missing Value Source: NWS Daily Summary

Daily Weather History Graph

Daily Weather History Graph

Search for Another Location

Airport or City:

Trip Planner

Search our weather history database for the weather conditions in past years. The results will help you decide how hot, cold, wet, or windy it might be!

Date:

Astronomy

Feb. 25, 2014 Rise Set
Actual Time 6:55 AM CST 5:59 PM CST
Civil Twilight 6:27 AM CST 6:28 PM CST
Nautical Twilight 5:55 AM CST 7:00 PM CST
Astronomical Twilight 5:22 AM CST 7:32 PM CST
Moon 3:54 AM CST (2/25) 2:03 PM CST (2/25)
Length of Visible Light 12h 00m
Length of Day
11h 04m
Waning Crescent, 18% of the Moon is Illuminated
Feb 25
Waning Crescent
Mar 1
New
Mar 8
First Quarter
Mar 16
Full
Mar 23
Last Quarter

Hourly Weather History & Observations

Time (CST) Temp. Windchill Dew Point Humidity Pressure Visibility Wind Dir Wind Speed Gust Speed Precip Events Conditions
12:53 AM 10.0 °F -4.5 °F 5.0 °F 80% 30.38 in 10.0 mi North 11.5 mph - 0.01 in   Overcast
1:26 AM 8.1 °F -6.2 °F 3.9 °F 83% 30.33 in 10.0 mi North 10.4 mph - N/A   Mostly Cloudy
1:37 AM 8.1 °F -5.3 °F 3.9 °F 83% 30.33 in 10.0 mi North 9.2 mph - N/A   Scattered Clouds
1:53 AM 8.1 °F -5.3 °F 3.0 °F 80% 30.38 in 10.0 mi North 9.2 mph - N/A   Mostly Cloudy
2:39 AM 7.0 °F -8.3 °F 3.0 °F 84% 30.34 in 6.0 mi North 11.5 mph - N/A   Overcast
2:53 AM 8.1 °F -6.2 °F 3.0 °F 80% 30.39 in 10.0 mi North 10.4 mph - N/A   Overcast
3:53 AM 7.0 °F -8.3 °F 1.9 °F 80% 30.39 in 10.0 mi North 11.5 mph - N/A   Scattered Clouds
4:53 AM 3.9 °F -12.2 °F -0.9 °F 80% 30.41 in 10.0 mi North 11.5 mph - N/A   Clear
5:53 AM 3.0 °F -16.7 °F -2.0 °F 80% 30.42 in 10.0 mi NNW 17.3 mph - N/A   Clear
6:53 AM 1.0 °F -17.3 °F -4.0 °F 79% 30.41 in 10.0 mi NNW 13.8 mph - N/A   Clear
7:53 AM 1.9 °F -16.9 °F -4.0 °F 76% 30.43 in 9.0 mi NNW 15.0 mph - N/A   Clear
8:53 AM 1.9 °F -16.2 °F -4.0 °F 76% 30.43 in 10.0 mi North 13.8 mph - N/A   Clear
9:53 AM 3.9 °F -12.2 °F -2.9 °F 73% 30.46 in 10.0 mi WNW 11.5 mph - N/A   Clear
10:53 AM 6.1 °F -8.7 °F -2.9 °F 67% 30.46 in 10.0 mi WNW 10.4 mph - N/A   Clear
11:53 AM 8.1 °F -6.2 °F -4.0 °F 58% 30.44 in 10.0 mi NW 10.4 mph - N/A   Clear
12:53 PM 7.0 °F -7.5 °F -5.1 °F 58% 30.43 in 10.0 mi NW 10.4 mph - N/A   Partly Cloudy
1:53 PM 9.0 °F -9.0 °F -4.0 °F 56% 30.41 in 10.0 mi NW 17.3 mph - N/A   Mostly Cloudy
2:53 PM 9.0 °F -9.0 °F -2.0 °F 61% 30.40 in 10.0 mi NW 17.3 mph - N/A   Clear
3:53 PM 10.0 °F -9.1 °F -2.0 °F 58% 30.38 in 10.0 mi WNW 20.7 mph - N/A   Clear
4:53 PM 9.0 °F -7.9 °F -0.9 °F 64% 30.39 in 10.0 mi WNW 15.0 mph - N/A   Clear
5:53 PM 8.1 °F -8.4 °F -0.9 °F 67% 30.38 in 10.0 mi WNW 13.8 mph - N/A   Clear
6:53 PM 8.1 °F -9.0 °F -0.9 °F 67% 30.40 in 10.0 mi NW 15.0 mph - N/A   Clear
7:53 PM 7.0 °F -12.6 °F -2.9 °F 64% 30.43 in 10.0 mi NW 19.6 mph - N/A   Clear
8:53 PM 5.0 °F -17.5 °F -2.9 °F 70% 30.45 in 8.0 mi NNW 25.3 mph 32.2 mph N/A   Clear
9:53 PM 3.0 °F -18.3 °F -8.0 °F 60% 30.48 in 10.0 mi NNW 20.7 mph 29.9 mph N/A   Clear
10:53 PM 1.9 °F -16.2 °F -8.0 °F 63% 30.48 in 10.0 mi NNW 13.8 mph 25.3 mph N/A   Clear
11:53 PM 1.0 °F -14.9 °F -8.0 °F 66% 30.48 in 10.0 mi NW 10.4 mph - N/A   Clear